www.pogodaiklimat.ru
ПОГОДА в Каменице-над-Сирочью

Архив погоды в Каменице-над-Сирочью (Словакия)

Время
(UTC), дата
16 21.01
17 21.01
18 21.01
19 21.01
20 21.01
21 21.01
22 21.01
23 21.01
00 22.01
01 22.01
02 22.01
03 22.01
04 22.01
05 22.01
06 22.01
07 22.01
08 22.01
09 22.01
10 22.01
11 22.01
12 22.01
13 22.01
14 22.01
15 22.01
16 22.01
17 22.01
18 22.01
19 22.01
20 22.01
21 22.01
22 22.01
23 22.01
00 23.01
01 23.01
02 23.01
03 23.01
04 23.01
05 23.01
06 23.01
07 23.01
08 23.01
09 23.01
10 23.01
11 23.01
12 23.01
13 23.01
14 23.01
15 23.01
16 23.01
17 23.01
18 23.01
19 23.01
20 23.01
21 23.01
22 23.01
23 23.01
00 24.01
01 24.01
02 24.01
03 24.01
04 24.01
05 24.01
06 24.01
07 24.01
08 24.01
09 24.01
10 24.01
11 24.01
12 24.01
13 24.01
14 24.01
15 24.01
16 24.01
17 24.01
18 24.01
19 24.01
20 24.01
21 24.01
22 24.01
23 24.01
00 25.01
01 25.01
02 25.01
03 25.01
04 25.01
05 25.01
06 25.01
07 25.01
08 25.01
09 25.01
10 25.01
11 25.01
12 25.01
13 25.01
14 25.01
15 25.01
16 25.01
17 25.01
18 25.01
19 25.01
20 25.01
21 25.01
22 25.01
23 25.01
00 26.01
01 26.01
02 26.01
03 26.01
04 26.01
05 26.01
06 26.01
07 26.01
08 26.01
09 26.01
10 26.01
11 26.01
12 26.01
13 26.01
14 26.01
15 26.01
16 26.01
17 26.01
18 26.01
19 26.01
20 26.01
21 26.01
22 26.01
23 26.01
00 27.01
01 27.01
02 27.01
03 27.01
04 27.01
05 27.01
06 27.01
07 27.01
08 27.01
09 27.01
10 27.01
11 27.01
12 27.01
13 27.01
14 27.01
15 27.01
16 27.01
17 27.01
18 27.01
19 27.01
20 27.01
21 27.01
22 27.01
23 27.01
00 28.01
01 28.01
02 28.01
03 28.01
04 28.01
05 28.01
06 28.01
07 28.01
08 28.01
09 28.01
10 28.01
11 28.01
12 28.01
13 28.01
14 28.01
15 28.01
Ветер
(напр.,м/с)
Видим. Явления Облачность Т
(С)
Тd
(С)
f
(%)
Тe
(С)
Тes
(С)
Комфортность P
(гПа)
Po
(гПа)
Тmin
(С)
Tmax
(С)
R
(мм)
R24
(мм)
S
(см)
З 4 17 км 9/9 900 м
[Cu med, cong]
-0.8 -8.0 58 -6 -6 1017.9 995.5
СЗ 3 25 км 9/9 1300 м
[Sc]
-1.5 -8.2 60 -6 -6 1018.1 995.7
нст 1 25 км {ливн. снег} 9/9 1500 м
[Sc]
-1.9 -8.4 61 -4 -4 1018.2 995.7 -0.2 6
1 25 км 10/10 1500 м
[Sc]
-2.7 -8.2 66 -5 -5 1018.1 995.6
ЮЗ 2 20 км 10/10 1200 м
[Sc]
-2.4 -8.3 64 -6 -6 1018.2 995.7
ЮЗ 2 н/о н/о -2.2 -7.9 65 -6 -6 1018.2 995.7
З 3 н/о н/о -2.1 -8.0 64 -7 -7 1018.0 995.5
1 н/о н/о -2.4 -7.5 68 -4 -4 1017.6 995.1
нст 1 н/о н/о -4.5 -7.8 78 -7 -7 1017.3 994.6
2 н/о н/о -5.2 -8.4 78 -9 -9 1017.2 994.5
З 3 н/о н/о -4.5 -7.4 80 -10 -10 1017.0 994.4
З 2 н/о н/о -4.3 -5.7 90 -9 -9 1017.0 994.4
штиль 0 н/о н/о -4.9 -6.4 89 -6 -6 1017.1 994.4
Ю 2 н/о н/о -5.2 -6.3 92 -10 -10 1017.0 994.3
нст 1 16 км {ливн. снег} 8/8 1500 м
[Sc]
-5.6 -6.4 94 -8 -8 1017.2 994.5 -5.9 0.1 0.1 5
штиль 0 25 км 8/8 1500 м
[Sc]
-6.0 -6.8 94 -7 -7 1017.6 994.8
1 25 км 5/5 1500 м
[Sc]
-4.5 -6.3 87 -7 -6 1017.5 994.8
нст 1 25 км 6/6 1200 м
[Sc]
-2.4 -6.4 74 -4 -3 1017.5 995.0
З 3 13 км слаб. снег 10/10 840 м
[Sc]
-1.5 -5.9 72 -6 -6 1017.6 995.2
СЗ 4 10 км слаб. снег 10/10 420 м
[Sc]
-1.4 -4.7 78 -7 -7 1017.7 995.3
СЗ 5 1800 м слаб. снег 10/10 600 м
[Sc]
-1.3 -3.8 83 -8 -8 1018.1 995.7 0.0
СЗ 4 3000 м слаб. снег 10/10 800 м
[Sc]
-1.2 -3.2 86 -7 -7 1018.8 996.4
СЗ 4 8000 м слаб. снег 9/9 840 м
[Sc]
-1.1 -4.3 79 -7 -7 1019.9 997.5
СЗ 4 25 км в посл. час снег 9/9 600 м
[Sc]
-1.1 -5.3 73 -7 -7 1020.8 998.4
С 3 20 км 9/9 700 м
[Sc]
-1.7 -5.7 74 -6 -6 1022.1 999.6
1 20 км в посл. час ливневой снег 8/8 840 м
[Cu med, cong]
-2.3 -4.0 88 -5 -5 1023.4 1000.8
СЗ 2 20 км {ливн. снег, снег} 9/9 1000 м
[Sc]
-1.4 -6.0 71 -5 -5 1023.8 1001.3 -0.9 0.2 7
1 25 км 9/9 1300 м
[Sc]
-2.1 -4.8 82 -4 -4 1024.5 1001.9
С 5 2500 м слаб. снег 10/10 600 м
[Sc]
-2.0 -3.9 87 -9 -9 1025.1 1002.5
С 2 н/о н/о -1.9 -4.9 80 -6 -6 1025.0 1002.4
С 4 н/о н/о -1.3 -6.2 69 -7 -7 1024.9 1002.3
С 2 н/о н/о -1.4 -5.8 72 -5 -5 1025.0 1002.4
С 3 н/о н/о -1.3 -5.7 72 -6 -6 1024.9 1002.3 0.1
З 2 н/о н/о -1.6 -5.3 76 -5 -5 1024.9 1002.3
З 3 н/о н/о -1.8 -5.0 79 -7 -7 1024.7 1002.1
СЗ 3 н/о н/о -1.9 -4.6 82 -7 -7 1024.7 1002.1
СЗ 2 н/о н/о -1.9 -4.7 81 -6 -6 1024.6 1002.0
СЗ 4 н/о н/о -1.2 -5.6 72 -7 -7 1024.8 1002.2
СЗ 3 16 км {снег} 9/9 1440 м
[Sc]
-1.6 -5.4 75 -6 -6 1025.4 1002.8 -2.2 0.2 0.3 7
СЗ 4 17 км слаб. ливневой снег 9/9 800 м
[Cu Sc]
-1.6 -5.6 74 -7 -7 1025.8 1003.2
СЗ 6 18 км в посл. час ливневой снег 9/9 1440 м
[Sc diur, vesp]
-1.1 -6.2 68 -8 -8 1025.7 1003.1
С 3 14 км {ливн. снег} 6/6 930 м
[Cu med, cong]
-0.9 -5.9 69 -5 -5 1026.0 1003.4
С 5 14 км в посл. час ливневой снег {метель} 8/8 960 м
[Cu med, cong]
-0.6 -6.0 67 -6 -6 1026.3 1003.8
С 4 17 км слаб. ливневой снег {метель} 6/6 1000 м
[Cu med, cong]
-0.8 -4.7 75 -6 -5 1026.9 1004.3
С 5 19 км в посл. час ливневой снег 8/8 1080 м
[Sc diur, vesp]
-0.8 -6.2 67 -7 -6 1027.6 1005.0 0.0
С 4 21 км 6/6 1140 м
[Cu med, cong]
-1.4 -7.3 64 -7 -6 1028.2 1005.6
СВ 6 23 км 6/6 1200 м
[Cu med, cong]
-1.4 -9.0 56 -8 -8 1029.0 1006.3
СВ 5 22 км {метель} 8/8 1140 м
[Sc diur, vesp]
-1.8 -9.6 55 -8 -8 1029.9 1007.2
С 6 19 км 6/6 1170 м
[Sc diur, vesp]
-2.2 -10.2 54 -9 -9 1030.8 1008.0
С 4 18 км 6/6 1320 м
[Sc]
-3.1 -10.9 55 -9 -9 1031.3 1008.4
СЗ 4 17 км {метель} 6/6 1350 м
[Sc]
-4.5 -11.1 60 -10 -10 1032.0 1009.0 -0.5 0.0 7
С 6 17 км 6/6 1410 м
[Sc]
-3.5 -10.6 58 -10 -10 1032.3 1009.4
С 5 15 км 5/5 1300 м
[Sc]
-3.6 -10.4 59 -10 -10 1032.8 1009.9
СЗ 2 н/о н/о -4.4 -11.0 60 -8 -8 1033.4 1010.4
1 н/о н/о -6.2 -11.0 69 -8 -8 1033.9 1010.7
С 3 н/о н/о -4.1 -9.9 64 -9 -9 1034.1 1011.1
С 4 н/о н/о -4.4 -10.0 65 -10 -10 1034.4 1011.4
Ю 2 н/о н/о -6.9 -10.6 75 -11 -11 1035.2 1011.9
2 н/о н/о -8.1 -11.1 79 -12 -12 1035.3 1011.9
С 1 н/о н/о -11.0 -12.9 86 -13 -13 1035.8 1012.1
1 н/о н/о -12.6 -14.4 86 -15 -15 1036.4 1012.6
2 н/о н/о -13.2 -14.9 87 -18 -18 1037.5 1013.6
В 2 20 км ясно -14.4 -16.1 87 -19 -19 1038.1 1014.1 -14.6 0.0 7
СВ 2 22 км ясно -15.2 -16.9 87 -20 -20 1038.7 1014.6
СВ 2 25 км ясно -13.1 -15.4 83 -18 -16 1039.0 1015.1
В 1 23 км ясно -9.3 -12.7 76 -12 -9 1038.8 1015.2
1 24 км ясно -5.5 -11.2 64 -8 -4 1038.1 1014.9
1 25 км ясно -2.7 -10.7 54 -4 -1 1037.0 1014.1
В 1 25 км ясно -1.8 -11.1 49 -3 -0 1036.5 1013.6
1 25 км ясно -1.2 -11.9 44 -2 -1 1035.8 1013.0
1 25 км ясно -0.6 -11.6 43 -2 -1 1035.6 1012.9
В 1 24 км ясно -3.2 -10.7 56 -5 -5 1035.7 1012.7
Ю 4 20 км ясно -5.7 -12.0 61 -12 -12 1036.2 1013.0
1 19 км ясно -8.0 -12.2 72 -10 -10 1036.5 1013.1
СВ 2 14 км ясно -10.5 -13.9 76 -15 -15 1037.0 1013.4 -0.4 7
В 1 14 км ясно -11.6 -14.2 81 -14 -14 1037.2 1013.5
1 10 км ясно -12.5 -14.8 83 -15 -15 1037.4 1013.6
В 1 н/о н/о -14.1 -15.6 88 -17 -17 1037.6 1013.6
штиль 0 н/о н/о -14.5 -16.3 86 -15 -15 1037.6 1013.6
1 н/о н/о -14.7 -16.2 88 -17 -17 1037.4 1013.4
нст 1 н/о н/о -14.9 -16.4 88 -17 -17 1036.8 1012.8
СВ 1 н/о н/о -13.5 -15.1 88 -16 -16 1036.3 1012.4
1 н/о н/о -12.1 -13.8 87 -14 -14 1035.8 1012.0
нст 1 н/о н/о -11.2 -12.9 87 -13 -13 1035.4 1011.7
штиль 0 н/о н/о -10.6 -12.5 86 -11 -11 1034.7 1011.1
штиль 0 н/о н/о -9.8 -11.7 86 -10 -10 1034.3 1010.8
штиль 0 17 км 10/10 930 м
[Sc]
-9.2 -11.4 84 -10 -10 1033.9 1010.5 -15.8 7
штиль 0 19 км 10/10 960 м
[Sc]
-8.8 -11.0 84 -9 -9 1033.8 1010.4
штиль 0 15 км 10/10 900 м
[Sc]
-8.0 -10.7 81 -9 -9 1033.3 1010.0
штиль 0 17 км 10/10 800 м
[Sc]
-7.0 -10.8 74 -8 -8 1033.0 1009.8
штиль 0 17 км 10/10 800 м
[Sc]
-5.9 -10.3 71 -7 -7 1032.4 1009.3
штиль 0 19 км 10/10 840 м
[Sc]
-4.9 -10.5 65 -6 -6 1031.7 1008.7
нст 1 13 км 10/10 750 м
[Sc]
-4.8 -9.2 71 -7 -7 1031.1 1008.1
штиль 0 6000 м мгла 10/10 720 м
[Sc]
-5.0 -9.1 73 -6 -6 1030.6 1007.6
2 8000 м мгла 10/10 800 м
[Sc]
-5.5 -8.7 78 -10 -10 1030.6 1007.6
З 3 7000 м дымка 10/10 840 м
[Sc]
-6.1 -8.7 82 -12 -12 1030.6 1007.5
З 2 1900 м слаб. снег 10/10 800 м
[Sc]
-6.4 -7.9 89 -11 -11 1030.7 1007.6
З 2 14 км в посл. час снег 10/10 750 м
[Sc]
-6.7 -7.5 94 -11 -11 1030.8 1007.6
З 2 12 км {снег} 10/10 700 м
[Sc]
-6.8 -7.3 96 -11 -11 1030.8 1007.6 -4.5 0.1 6
1 12 км 10/10 660 м
[Sc]
-6.7 -7.4 95 -9 -9 1030.5 1007.4
З 2 1700 м слаб. переохл. морось (гололёд) 10/10 180 м
[Frnb]
-6.7 -6.8 99 -11 -11 1030.2 1007.1
З 2 н/о н/о -6.6 -6.6 100 -11 -11 1030.1 1007.0
З 1 н/о н/о -6.5 -6.8 98 -9 -9 1029.7 1006.6
1 н/о н/о -6.4 -6.7 98 -9 -9 1029.5 1006.4
З 2 н/о н/о -6.4 -6.8 97 -11 -11 1029.1 1006.0 0.5
2 н/о н/о -6.3 -6.8 96 -11 -11 1029.1 1006.0
З 1 н/о н/о -6.2 -6.7 96 -9 -9 1029.0 1005.9
З 1 н/о н/о -6.2 -6.7 96 -9 -9 1029.0 1005.9
1 н/о н/о -6.2 -6.7 96 -9 -9 1028.4 1005.4
1 н/о н/о -6.1 -6.8 95 -9 -9 1028.5 1005.5
штиль 0 1500 м в посл. час снег 10/10 630 м
[Sc]
-6.0 -6.7 95 -7 -7 1028.0 1005.0 -6.8 1 1.3 8
1 1500 м в посл. час снег 10/10 750 м
[Sc]
-5.8 -6.5 95 -8 -8 1028.3 1005.3
1 1700 м дымка 10/10 800 м
[Sc]
-5.4 -6.8 90 -8 -8 1028.3 1005.3
нст 1 2400 м снежные зёрна 10/10 600 м
[Sc]
-4.9 -6.9 86 -7 -7 1028.3 1005.4
1 2500 м снежные зёрна 10/10 600 м
[Sc]
-4.4 -6.7 84 -7 -7 1028.0 1005.1
штиль 0 2100 м в посл. час зёрна {снег} 10/10 720 м
[Sc]
-3.9 -5.9 86 -5 -5 1027.6 1004.8
нст 1 1400 м слаб. снег 10/10 750 м
[Sc]
-3.8 -5.3 89 -6 -6 1027.2 1004.4 0.6
штиль 0 2500 м в посл. час снег 10/10 330 м
[Sc]
-3.4 -5.6 85 -4 -4 1026.9 1004.1
штиль 0 2100 м дымка 10/10 360 м
[Sc]
-3.4 -6.0 82 -4 -4 1026.7 1003.9
нст 1 2500 м дымка {снег} 10/10 1110 м
[Sc]
-3.8 -5.8 86 -6 -6 1026.6 1003.8
З 2 6000 м дымка 10/10 1080 м
[Sc]
-4.1 -5.6 89 -8 -8 1026.6 1003.8
З 1 7000 м дымка 10/10 930 м
[Sc]
-4.2 -5.4 91 -7 -7 1026.6 1003.8
нст 1 2700 м слаб. снег 10/10 900 м
[Sc]
-4.3 -5.1 94 -7 -7 1026.8 1003.9 -3.2 0.7 7
штиль 0 3500 м дымка {снег} 10/10 630 м
[Sc]
-4.3 -4.8 96 -6 -6 1026.4 1003.6
штиль 0 1400 м слаб. снег 10/10 750 м
[Sc]
-4.3 -4.8 96 -6 -6 1026.4 1003.6
нст 1 н/о н/о -4.4 -4.5 99 -7 -7 1026.3 1003.5
штиль 0 н/о н/о -4.3 -4.6 98 -6 -6 1026.0 1003.2
ЮЗ 1 н/о н/о -4.4 -4.5 99 -7 -7 1025.8 1003.0
нст 1 н/о н/о -4.4 -4.5 99 -7 -7 1025.9 1003.1 1
1 н/о н/о -4.3 -4.6 98 -7 -7 1025.2 1002.4
1 н/о н/о -4.3 -4.4 99 -7 -7 1024.8 1002.0
ЮЗ 1 н/о н/о -4.3 -4.4 99 -7 -7 1025.2 1002.4
З 1 н/о н/о -4.3 -4.8 96 -7 -7 1025.0 1002.2
В 1 н/о н/о -4.3 -4.6 98 -7 -7 1025.0 1002.2
СЗ 1 1900 м дымка 10/10 540 м
[St]
-4.2 -4.5 98 -7 -7 1024.2 1001.4 -4.4 1 1.7 10
штиль 0 2900 м дымка 10/10 480 м
[St]
-4.0 -4.5 96 -5 -5 1024.5 1001.7
З 1 3200 м дымка 10/10 420 м
[St]
-3.5 -4.6 92 -6 -6 1023.9 1001.2
нст 1 4500 м дымка 10/10 360 м
[St]
-3.0 -5.2 85 -5 -5 1023.5 1000.8
1 5000 м дымка 10/10 300 м
[St]
-2.0 -4.6 82 -4 -4 1023.1 1000.5
штиль 0 5000 м дымка 10/10 240 м
[St]
-1.8 -4.3 83 -3 -3 1022.6 1000.1
Ю 2 6000 м дымка 10/10 300 м
[St]
-1.2 -2.3 92 -5 -5 1021.7 999.2
Ю 4 3500 м дымка 10/10 240 м
[St]
-1.5 -2.0 96 -7 -7 1020.7 998.2
Ю 5 3200 м дымка 10/10 210 м
[St]
-1.7 -2.0 98 -8 -8 1019.8 997.3
нст 1 3500 м дымка 10/10 180 м
[St]
-1.6 -2.0 97 -4 -4 1020.1 997.6
Ю 4 1800 м дымка 10/10 150 м
[St]
-1.5 -1.5 100 -8 -8 1019.4 997.0
Ю 4 6000 м дымка 10/10 150 м
[St]
-1.2 -1.2 100 -7 -7 1018.8 996.4
Ю 4 2500 м слаб. снег 10/10 360 м
[Frnb]
-0.5 -0.9 97 -6 -6 1018.1 995.8 -0.5 0.1 10
Ю 3 11 км слаб. снег 10/10 450 м
[Sc]
0.0 -1.3 91 -5 -5 1017.4 995.1
ЮЗ 3 12 км в посл. час снег 10/10 450 м
[Frnb]
+0.2 -1.1 91 -5 -5 1017.0 994.8
н/о н/о +0.3 -1.1 90 1016.7 994.5
2 н/о н/о +0.5 -1.1 89 -3 -3 1016.5 994.3
Ю 3 н/о н/о +0.5 -1.1 89 -4 -4 1016.0 993.8
Ю 3 н/о н/о +0.2 -0.5 95 -5 -5 1015.7 993.5 0.4
1 н/о н/о -0.4 -0.7 98 -3 -3 1015.4 993.1
2 н/о н/о -0.1 -0.2 99 -4 -4 1014.1 991.9
Ю 4 н/о н/о -0.1 -0.1 100 -6 -6 1014.0 991.8
2 н/о н/о +0.1 +0.1 100 -4 -4 1013.7 991.5
2 н/о н/о -0.2 -0.5 98 -4 -4 1014.1 991.9
нст 1 5000 м слаб. снег 9/9 1500 м
[Sc]
-1.1 -1.1 100 -3 -3 1014.4 992.1 -1.2 0.9 1.0 10
1 6000 м в посл. час снег 8/0
[Ac trans]
-1.6 -1.6 100 -4 -4 1013.9 991.6
1 5000 м слаб. снег 10/10 1500 м
[Sc]
-0.6 -0.6 100 -3 -3 1014.2 991.9
нст 1 8000 м в посл. час снег 10/5 1500 м
[Sc As trans]
+1.3 -0.2 90 -1 0 1014.2 992.1
ЮЗ 2 11 км 9/9 1500 м
[Sc]
+2.4 0.0 84 -1 -0 1014.1 992.1
З 2 10 км 10/10 1500 м
[Sc]
+2.5 -0.2 82 -1 -1 1014.2 992.2
З 2 11 км {снег} 10/10 1500 м
[Sc]
+3.0 -0.3 79 0 0 1014.0 992.0 0.0
З 2 11 км 10/10 960 м
[Sc]
+3.1 -0.2 79 0 0 1014.5 992.5
З 2 11 км 10/10 1140 м
[Sc]
+2.5 -0.1 83 -1 -1 1014.8 992.8
нст 1 8000 м слаб. дождь 10/10 600 м
[Sc]
+1.6 +0.4 92 -0 -0 1015.7 993.6
Местоположение метеостанции Каменица-над-Сирочью (Словакия): широта 48.93 долгота 22.00 высота над уровнем моря 178 м.
В архиве по умолчанию представлена погода в Каменице-над-Сирочью за последнюю неделю. Архивные данные за месяц целиком и за предыдущие месяцы, начиная с января 2011 года, Вы можете получить, выбрав интересующий диапазон дат из раскрывающегося списка и нажав кнопку "Найти!".
*Определитесь, кто Вы:
Внимание! Время в таблицах - всемирное. Для получения местного времени необходимо прибавить поправку, которая равна 1 ч.
Смотрите также архив погоды в соседних городах и на ближайших метеорологических станциях:
Партнеры нашего сайта:      
Пояснения к столбцам:
  • Ветер - указаны скорость ветра в м/с - средняя за 10 мин, порывы в срок и между сроками (в фигурных скобках) и направление, откуда дует ветер: С - северный,
  • СВ - северо-восточный, В - восточный, ЮВ - юго-восточный, Ю - южный, ЮЗ - юго-западный, З - западный, СЗ - северо-западный.
  • Видимость - горизонтальная дальность видимости в метрах или километрах. При видимости от 1 до 10 км при отсутствии осадков обычно наблюдается дымка, при ухудшении видимости до 1 км и менее - туман. В сухую погоду видимость может ухудшаться дымом, пылью или мглою.
  • Явления - указаны атмосферные явления, наблюдавшиеся в срок или в последний час перед сроком; фигурными скобками обозначены явления, наблюдавшиеся между сроками (за 1-3 часа до срока); квадратными скобками обозначены град или гололедные отложения с указанием их диаметра в мм.
  • Облачность - указаны через наклонную черту общая и нижняя облачность в баллах и высота нижней границы облаков в метрах; квадратными скобками обозначены формы облаков: Ci - перистые, Cs - перисто-слоистые, Cc - перисто-кучевые, Ac - высококучевые, As - высокослоистые, Sc - слоисто-кучевые, Ns - слоисто-дождевые, Cu - кучевые, Cb - кучево-дождевые. Подробнее классификацию облаков см. в Атласе облаков (PDF).
  • T - Температура воздуха - температура, измеренная на высоте 2 м над землей.
  • Td - Температура точки росы - температура, при понижении до которой содержащийся в воздухе водяной пар достигнет насыщения.
  • f - Относительная влажность воздуха - влажноcть воздуха, измеренная на высоте 2 м над землей.
  • Te - Эффективная температура - температура, которую ощущает одетый по сезону человек в тени. Характеристика душности погоды. При расчете учитывается влияние влажности воздуха и скорости ветра на теплоощущения человека.
  • Tes - Эффективная температура на солнце - температура, которую ощущает человек, с поправкой на солнечный нагрев. Характеристика знойности погоды. Зависит от высоты солнца над горизонтом, облачности и скорости ветра. Ночью, в пасмурную погоду, а также при ветре 12 м/с и более поправка равна нулю.
  • P - Атмосферное давление - приведенное к уровню моря атмосферное давление.
  • Po - Атмосферное давление - измеренное на уровне метеостанции атмосферное давление.
  • Tmin - Минимальная температура - минимум температуры воздуха на высоте 2 м над землей.
  • Tmax - Максимальная температура - максимум температуры воздуха на высоте 2 м над землей.
  • R - Количество осадков - Количество выпавших осадков за период времени, мм. При наведении курсора мыши на число - период времени, за который выпало указанное количество осадков.
  • R24 - Количество осадков - Количество выпавших осадков за 24 часа, мм.
  • S - Снежный покров - Высота снежного покрова, см. При наведении курсора мыши на число - состояние снежного покрова и степень покрытия местности в баллах.